This is the latest recevied weather packets stored in our database for station/object K1TTC. If no packets are shown the sender has not sent any weather packets the latest 10 day(s).
| Time | Temp. | Humidity | Pressure | Rain* | Wind** | Luminosity | Snow |
|---|---|---|---|---|---|---|---|
| 1777085281 | 5.56° C | 48% | 1017.6 hPa | 0 mm | - | 0 W/m² | - |
| 1777084682 | 6.11° C | 47% | 1017.4 hPa | 0 mm | - | 0 W/m² | - |
| 1777084079 | 6.11° C | 46% | 1017.2 hPa | 0 mm | - | 0 W/m² | - |
| 1777083478 | 6.67° C | 43% | 1017.1 hPa | 0 mm | - | 0 W/m² | - |
| 1777082877 | 7.22° C | 43% | 1017 hPa | 0 mm | - | 0 W/m² | - |
| 1777082276 | 7.22° C | 42% | 1016.9 hPa | 0 mm | - | 0 W/m² | - |
| 1777081677 | 7.22° C | 41% | 1016.8 hPa | 0 mm | - | 0 W/m² | - |
| 1777081074 | 7.78° C | 40% | 1016.7 hPa | 0 mm | - | 0 W/m² | - |
| 1777080512 | 7.78° C | 39% | 1016.6 hPa | 0 mm | - | 0 W/m² | - |
| 1777079905 | 7.78° C | 39% | 1016.6 hPa | 0 mm | - | 0 W/m² | - |
| 1777079273 | 8.33° C | 39% | 1016.5 hPa | 0 mm | - | 0 W/m² | - |
| 1777078670 | 8.33° C | 38% | 1016.3 hPa | 0 mm | - | 0 W/m² | - |
| 1777078068 | 8.89° C | 38% | 1016 hPa | 0 mm | - | 0 W/m² | - |
| 1777077469 | 8.89° C | 39% | 1015.7 hPa | 0 mm | - | 0 W/m² | - |
| 1777076878 | 8.89° C | 38% | 1015.6 hPa | 0 mm | - | 0 W/m² | - |
| 1777076272 | 8.89° C | 38% | 1015.5 hPa | 0 mm | - | 0 W/m² | - |
| 1777075663 | 8.89° C | 37% | 1015.2 hPa | 0 mm | - | 0 W/m² | - |
| 1777075208 | 9.44° C | 37% | 1015.1 hPa | 0 mm | - | 0 W/m² | - |
| 1777074590 | 9.44° C | 39% | 1014.8 hPa | 0 mm | - | 0 W/m² | - |
| 1777073861 | 10° C | 39% | 1014.7 hPa | 0 mm | - | 0 W/m² | - |
| 1777073262 | 10° C | 39% | 1014.5 hPa | 0 mm | - | 7 W/m² | - |
| 1777072662 | 10° C | 40% | 1014.4 hPa | 0 mm | - | 16 W/m² | - |
| 1777072065 | 10.56° C | 41% | 1014.1 hPa | 0 mm | - | 21 W/m² | - |
| 1777071461 | 10.56° C | 39% | 1013.9 hPa | 0 mm | - | 32 W/m² | - |
| 1777070859 | 10.56° C | 38% | 1013.8 hPa | 0 mm | - | 42 W/m² | - |
* Rain latest hour (hover to see other rain measurements)
** Current wind speed in m/s (hover to see current wind gust speed)